Simultaneous Nadir Overpasses (SNOs) Predictions

Prediction of SNOs between METOP-A and NOAA-19 Satellite Orbit:

Table of predicted SNOs for the next 14.0 days since TLE Epoch: 5/15/2020
Index Date (METOP-A) Time (METOP-A) Lat,Lon (METOP-A) SZA (METOP-A ) Date (NOAA-19) Time (NOAA-19) Lat,Lon (NOAA-19) SZA (NOAA-19 ) Distance(km) Time Diff (sec)
1 05/22/2020 09:34:38 80.49, 49.83 60.24 05/22/2020 09:33:38 80.50, 49.92 60.25 2.07 60
2 05/22/2020 10:25:19 -80.50,-142.71 119.75 05/22/2020 10:24:33 -80.49,-142.66 119.76 1.12 46
3 05/22/2020 11:15:59 80.51, 24.67 60.25 05/22/2020 11:15:38 80.49, 24.63 60.23 1.72 21
4 05/22/2020 12:06:41 -80.49,-168.18 119.78 05/22/2020 12:06:34 -80.50,-168.29 119.78 2.31 7
5 05/22/2020 12:57:21 80.49, -0.80 60.22 05/22/2020 12:57:38 80.48, -0.66 60.22 2.92 17
6 05/22/2020 13:48:03 -80.48, 166.34 119.81 05/22/2020 13:48:34 -80.49, 166.42 119.79 1.98 31
7 05/22/2020 14:38:43 80.48, -26.28 60.19 05/22/2020 14:39:39 80.49, -26.30 60.21 0.69 56




NCC Satellite Simultaneous Nadir Overpasses (SNOs) Prediction Service
